Location: ???????????
(48.4772°N, 37.9562°E)
Time: 00:33:59
(UTC+00:00)

Daily predictions for brighter satellites

Satellite Brightness Start Highest point End
(mag) Time Altitude Azimuth Time Altitude Azimuth Time Altitude Azimuth
CENTAUR R/B 4.3 00:41:42 25° E 00:41:42 25° E 00:46:19 10° ENE
Cosmos 2344 4.4 00:43:28 42° ESE 00:43:28 42° ESE 00:49:50 10° NE
Cosmos 1943 Rocket 4.5 00:43:26 19° E 00:43:26 19° E 00:46:52 10° NE
Cosmos 2278 Rocket 4.4 01:10:07 17° NNE 01:10:07 17° NNE 01:11:18 10° NNE
USA 215 3.4 01:31:44 10° ESE 01:38:10 64° NNE 01:38:22 64° NNE
Cosmos 2369 Rocket 3.8 01:51:45 10° SSE 01:56:39 32° ESE 02:01:34 10° NE
NOSS 3-3 (A) 4.4 01:56:58 68° WNW 01:57:58 76° SW 02:06:25 10° SSE
NOSS 3-3 (C) 4.4 01:57:03 67° WNW 01:58:04 76° SW 02:06:30 10° SSE
MOS 1-B Rocket 4.2 01:54:24 10° SSE 02:00:38 67° ENE 02:03:45 28° N
Cosmos 1867 4.2 02:09:32 45° S 02:09:32 45° S 02:13:25 10° SSE
Tsikada Rocket 4.0 02:01:57 10° S 02:08:08 79° E 02:14:26 10° NNE
Gblst 52 Del rocket 4.3 02:07:37 72° SW 02:08:15 81° SSE 02:14:58 10° ENE
COSMO-SKYMED 1 3.4 02:06:22 10° SE 02:10:33 48° ENE 02:11:24 42° NE
Cosmos 2208 Rocket 4.2 02:11:43 61° S 02:11:43 61° S 02:16:11 10° SSE
H-2A R/B 3.8 02:14:08 10° NNE 02:17:42 44° E 02:21:17 10° S
SL-19 R/B 4.1 02:19:38 10° SSE 02:25:15 81° WSW 02:27:17 41° NNW
Cosmos 1943 Rocket 2.0 02:25:02 59° SW 02:26:04 76° WNW 02:31:46 10° NNE
Cosmos 1241 Rocket 4.4 02:25:53 57° W 02:26:24 60° WSW 02:32:28 10° SSE
CZ-2C R/B 2.8 02:22:00 10° SSE 02:27:29 76° ENE 02:31:55 16° N
CENTAUR R/B 2.4 02:28:55 47° WSW 02:30:48 75° NW 02:38:05 10° NE
CZ-4C R/B 3.8 02:35:49 10° SE 02:38:49 43° ENE 02:39:02 42° ENE
SL-8 R/B 3.5 02:38:25 67° W 02:39:01 81° S 02:43:49 10° ESE
Cosmos 2297 3.7 02:39:06 45° WSW 02:40:37 61° WNW 02:46:19 10° NNE
NOSS 3-2 (A) 3.5 02:40:24 47° W 02:41:40 55° NW 02:48:15 10° NE
NOSS 3-2 (C) 3.3 02:46:05 31° SW 02:49:02 76° NW 02:55:40 10° NE
Cosmos 2278 Rocket 3.8 02:51:58 18° NNW 02:51:58 18° NNW 02:54:38 10° N
SJ 16-02 4.4 02:49:30 10° SE 02:52:22 17° E 02:55:14 10° NE
Iridium 2 3.5 02:48:41 10° S 02:52:29 85° W 02:56:18 10° N
FALCON 9 DEB 4.0 02:53:49 33° NE 02:53:49 33° NE 02:55:43 10° ENE
Meteor 2-6 Rocket 4.1 02:48:18 10° N 02:53:46 84° ENE 02:59:09 10° SSE
Envisat 2.9 02:49:41 10° NNE 02:54:48 79° WNW 02:59:52 10° SSW
Cosmos 2344 3.7 02:53:32 31° W 02:56:57 51° NW 03:04:55 10° NE
BREEZE-M DEB (TANK) 2.6 02:57:27 59° W 02:58:01 82° N 03:04:46 10° E
SKYMED 2 3.6 02:54:20 10° S 02:58:36 57° W 03:00:00 38° NW
FALCON 9 DEB 3.9 03:00:24 32° NNE 03:00:24 32° NNE 03:02:24 10° ENE
Meteor 2-3 Rocket 4.0 02:55:24 10° SW 03:00:49 45° WNW 03:06:20 10° N
FALCON 9 DEB 3.9 03:02:28 32° NNE 03:02:28 32° NNE 03:04:32 10° ENE
Cosmos 2098 Rocket 2.9 02:58:06 10° SSW 03:01:58 77° W 03:06:57 10° N
Meteor 2-13 Rocket 4.4 02:57:20 10° SSW 03:03:24 63° WNW 03:09:27 10° N
Cosmos 968 Rocket 3.5 03:02:25 15° SW 03:06:36 51° WNW 03:11:38 10° NNE
BREEZE M DEB (TANK) 2.4 03:07:48 42° WNW 03:08:51 73° N 03:11:10 10° E
Landsat 5 3.7 03:04:27 10° S 03:08:53 58° W 03:11:54 20° NNW
Meteor 1-10 Rocket 4.2 03:03:53 10° N 03:09:29 84° ENE 03:15:02 10° SSE
SL-27 R/B 3.7 03:07:05 14° N 03:09:51 40° ENE 03:13:14 10° SE
DNEPR-1 R/B 3.9 03:08:54 30° NW 03:11:16 70° SW 03:16:51 10° SSE
CZ-4B R/B 4.0 03:06:55 10° N 03:11:20 64° WNW 03:15:46 10° SSW
Cosmos 1833 4.1 03:09:16 18° NNW 03:13:39 81° WSW 03:19:23 10° SSE
Cosmos 921 Rocket 3.7 03:13:44 33° W 03:14:14 34° W 03:18:13 10° SSW
ATLAS 5 CENTAUR R/B 4.3 03:11:46 10° SSE 03:14:25 18° ESE 03:17:15 10° ENE
Okean 3 Rocket 3.5 03:12:02 10° SSW 03:16:33 76° W 03:21:08 10° N
USA 238 DEB 3.8 03:12:40 19° WSW 03:17:20 54° NW 03:24:10 10° NE
USA 238 3.8 03:12:43 19° WSW 03:17:26 54° NW 03:24:16 10° NE
ADEOS 3.6 03:12:28 10° NNE 03:17:44 86° ESE 03:22:57 10° SSW
CBERS 1 LM4 rocket 4.4 03:13:05 10° N 03:17:51 61° WNW 03:22:44 10° SSW
FALCON 9 DEB 3.2 03:18:25 40° NNW 03:18:32 40° NNW 03:21:18 10° ENE
BREEZE-M DEB (TANK) 4.3 03:15:56 22° WSW 03:18:33 36° SSW 03:32:01 10° SE
H-2A R/B 2.6 03:14:46 10° SSE 03:18:57 60° ENE 03:23:16 10° N
USA 215 3.5 03:14:55 10° SE 03:21:17 55° SW 03:25:43 21° WNW
Cosmos 1812 3.4 03:21:51 31° W 03:22:11 32° W 03:25:36 10° SSW
SJ-7 4.5 03:19:21 10° NNE 03:23:36 84° ESE 03:27:46 10° SSW
Cosmos 1354 Rocket 4.3 03:18:33 10° SSW 03:23:48 73° ESE 03:29:06 10° NNE
CZ-2C R/B 3.2 03:20:39 10° NNE 03:25:29 71° ESE 03:30:30 10° S
Cosmos 2263 4.1 03:20:41 10° SSW 03:26:22 77° WNW 03:32:10 10° NNE
Cosmos 1151 Rocket 3.6 03:24:41 20° NW 03:27:13 36° W 03:31:14 10° SSW
Cosmos 2279 Rocket 4.1 03:24:02 10° NNW 03:30:00 52° W 03:35:58 10° SSW
Cosmos 1766 Rocket 3.7 03:25:50 10° SSW 03:30:02 48° WNW 03:34:16 10° N
Geosat FO 4.3 03:29:46 10° SSE 03:33:05 81° WSW 03:35:27 18° NNW
Cosmos 2297 Rocket 3.9 03:29:25 10° NNW 03:34:10 26° NE 03:38:53 10° ESE
IRAS Rocket 4.2 03:29:52 10° S 03:35:20 65° WSW 03:40:49 10° NNW
Meteor PRIRODA 3.5 03:33:34 10° NNE 03:37:12 82° WNW 03:40:49 10° SSW
Meteor 1-31 Rocket 3.4 03:34:27 10° N 03:37:57 32° WNW 03:41:27 10° SW
Cosmos 1328 Rocket 4.0 03:35:37 10° NNW 03:39:41 38° W 03:43:43 10° SSW
Cosmos 2369 Rocket 2.4 03:35:07 10° SW 03:40:29 47° NW 03:45:55 10° NNE
Nadezhda 4 Rocket 4.0 03:35:47 10° S 03:41:56 88° E 03:48:13 10° N
SMAP 3.7 03:39:11 10° NNE 03:43:49 59° E 03:48:24 10° S
COSMO-SKYMED 1 3.9 03:43:48 10° SW 03:46:58 20° W 03:48:36 16° WNW
Cosmos 1862 4.0 03:44:25 10° SW 03:47:57 30° WNW 03:51:30 10° N
FAST Rocket 4.4 03:45:53 10° S 03:48:28 65° E 03:51:32 10° NNE
FALCON 9 DEB 3.5 03:48:04 19° W 03:50:13 45° NNW 03:53:31 10° ENE
Meteor 2-15 Rocket 4.4 03:44:16 10° NNW 03:50:20 68° W 03:56:20 10° S
H-2A R/B 4.1 03:49:03 10° NNW 03:51:31 17° WNW 03:54:00 10° WSW
Cosmos 1538 Rocket 4.4 03:46:18 10° NNW 03:51:33 65° ENE 03:56:42 10° SSE
H-2A R/B 3.6 03:48:19 10° NNE 03:52:54 38° E 03:57:28 10° SSE
Cosmos 1092 Rocket 4.4 03:49:57 10° S 03:56:07 69° E 04:02:25 10° NNE
CZ-2D R/B 4.4 03:52:47 10° NNE 03:56:28 46° E 04:00:07 10° S
Cosmos 2228 Rocket 3.4 03:53:01 10° N 03:57:30 70° E 04:02:00 10° SSE
CZ-4B R/B 2.7 03:56:38 10° N 04:00:06 49° WNW 04:03:34 10° SSW
Lacrosse 4 Rocket 3.9 03:59:27 10° N 04:02:06 15° NE 04:04:45 10° ENE
Cosmos 1656 Rocket 4.0 03:59:31 10° SW 04:04:37 41° NW 04:09:48 10° NNE
Cosmos 1408 Rocket 3.8 04:01:24 10° SSW 04:05:30 43° WNW 04:09:39 10° N
Cosmos 1503 Rocket 4.3 04:00:52 10° SW 04:05:56 46° WNW 04:11:06 10° NNE
USA 32 4.0 04:00:42 10° N 04:05:57 81° W 04:11:12 10° S
CZ-4B R/B 1.3 04:03:35 10° S 04:06:55 78° WSW 04:10:13 10° NNW
CZ-2C R/B 4.1 04:04:41 10° SW 04:08:20 18° W 04:11:57 10° NW
Cosmos 2227 Rocket 3.6 04:04:31 10° NNW 04:09:37 33° NE 04:14:40 10° ESE
Cosmos 1943 Rocket 3.6 04:06:54 10° W 04:10:49 19° NW 04:14:43 10° N
AQUARIUS 4.2 04:07:58 10° NNE 04:12:30 85° WNW 04:16:59 10° SSW
Cosmos 1743 Rocket 3.5 04:08:21 10° SSW 04:12:43 67° W 04:17:05 10° N
Alouette 2 Rocket 3.3 04:08:54 10° NNW 04:12:50 59° W 04:16:19 10° S
Cosmos 1777 Rocket 4.0 04:12:26 10° SSW 04:17:39 74° WNW 04:22:55 10° NNE
Meteor 1-27 Rocket 4.1 04:12:19 10° NNW 04:17:40 45° W 04:23:04 10° SSW
CORIOLIS 4.2 04:12:38 10° NNE 04:18:07 87° WNW 04:23:35 10° SSW
PSLV R/B 3.8 04:16:04 10° NNE 04:20:00 90° ESE 04:23:59 10° SSW
PSLV R/B 3.9 04:16:50 10° S 04:20:52 70° WSW 04:24:58 10° NNW
NOAA 6 4.0 04:16:08 10° N 04:21:15 73° WNW 04:26:20 10° SSW
CENTAUR R/B 3.6 04:17:01 10° W 04:22:45 31° NNW 04:29:28 10° NE
Cosmos 1602 3.6 04:23:21 10° SSW 04:27:09 70° WNW 04:30:58 10° N
FALCON 9 DEB 3.8 04:25:44 10° WNW 04:28:22 31° N 04:31:01 10° ENE
SJ 16-02 1.4 04:26:11 10° SW 04:30:30 55° WNW 04:34:49 10° NNE
NOAA 12 4.5 04:26:47 10° N 04:31:43 41° WNW 04:36:36 10° SW
